Content
SEND FEEDBACK

Daily
Averages
Monthly
Summary
United States of America

HILLSIDE, NEW JERSEY


Home > North America > United States > New Jersey
Elevation: 12 meters     Latitude: 40 40N     Longitude: 074 14W

WEATHER
 
SELECT A DAY
Number of Records: 194,117;   Date Range: 1/1/95 - 12/26/14
 
SHARE

PRINT THIS DATA

[ ← Previous Day ]
WEATHER ALMANAC - 10 APRIL, 2014
[ Next Day → ]
[ °F ]   °C
Weather ElementAverageHighLow
Temperature11.9 °C17 °C (1:54 pm)4.4 °C (5:51 am)
Dewpoint-3.2 °C2.8 °C (7:51 pm)-10 °C (2:51 am)
Humidity35.8 %47 % (6:51 am)25 % (10:51 am)
Barometer1019.6 hPa1023.4 hPa (9:51 am)1017.3 hPa (11:51 pm)
Wind Speed15.1 km/h25.9 km/h (2:51 pm)
Wind Gust38.9 km/h (11:51 am)
Weather ElementAverage
Visibility16.1 km
Wind DirectionSSE (151.6 °)

Weather ElementTotal
Precipitation---
Heating Degree Days7.7 (Base 18.3)
Growing Degree Days0.7 (Base 10)
Averaged from 25 records on 10 April, 2014
WEATHER CONDITIONS BREAKOUT
WIND DIRECTION BREAKOUT
WEATHER BY HOUR - 10 APRIL, 2014
[ °F ]   °C
Local TimeTemperatureDewpointHumidityBarometerVisibilityWind DirectionWind SpeedGust SpeedPrecipitationEventsConditions
1:51 AM5 °C-8.3 °C38 %1017.9 hPa16.1 kmNorth (10°)13 km/hClear
2:51 AM6.7 °C-10 °C30 %1019 hPa16.1 kmCalmClear
3:51 AM5.6 °C-8.3 °C37 %1019.3 hPa16.1 kmWest (280°)7.4 km/hClear
4:51 AM5 °C-7.8 °C40 %1020 hPa16.1 kmWSW (240°)7.4 km/hClear
5:51 AM4.4 °C-6.7 °C45 %1020.7 hPa16.1 kmCalmClear
6:51 AM5 °C-5.6 °C47 %1021.7 hPa16.1 kmWSW (240°)9.3 km/hClear
7:51 AM7.2 °C-4.4 °C44 %1022.7 hPa16.1 kmWSW (240°)13 km/hClear
8:51 AM9.4 °C-5.6 °C35 %1023 hPa16.1 kmSSE (160°)9.3 km/hClear
9:51 AM11.1 °C-7.2 °C27 %1023.4 hPa16.1 kmSW (220°)16.7 km/hClear
10:51 AM12.8 °C-6.7 °C25 %1023.4 hPa16.1 kmSouth (180°)20.4 km/h31.5 km/hClear
11:51 AM15 °C-4.4 °C26 %1022.4 hPa16.1 kmSouth (190°)14.8 km/h38.9 km/hPartly Cloudy
12:51 PM16.1 °C-3.3 °C26 %1021.3 hPa16.1 kmVariable11.1 km/hPartly Cloudy
1:51 PM16.7 °C-2.2 °C28 %1020.3 hPa16.1 kmVariable7.4 km/h27.8 km/hPartly Cloudy
1:54 PM17 °C-2 °C27 %1020.3 hPa16.1 kmSouth (180°)18.5 km/h37 km/hPartly Cloudy
2:51 PM15.6 °C-2.2 °C30 %1019.6 hPa16.1 kmSSE (150°)25.9 km/h33.3 km/hPartly Cloudy
3:51 PM15 °C-1.7 °C32 %1019 hPa16.1 kmSSE (150°)25.9 km/h38.9 km/hPartly Cloudy
4:51 PM15.6 °C-1.1 °C32 %1017.9 hPa16.1 kmSSE (150°)22.2 km/h35.2 km/hScattered Clouds
5:51 PM15.6 °C1.7 °C39 %1017.6 hPa16.1 kmSSE (150°)16.7 km/h33.3 km/hScattered Clouds
5:58 PM16 °C2 °C39 %1017.6 hPa16.1 kmSSE (150°)18.5 km/hMostly Cloudy
6:51 PM15 °C2.2 °C42 %1017.6 hPa16.1 kmSSE (160°)18.5 km/h29.6 km/hMostly Cloudy
7:51 PM14.4 °C2.8 °C46 %1017.6 hPa16.1 kmSouth (170°)20.4 km/hMostly Cloudy
8:51 PM13.9 °C0 °C39 %1017.9 hPa16.1 kmSouth (190°)25.9 km/hMostly Cloudy
9:51 PM12.8 °C-0.6 °C40 %1017.9 hPa16.1 kmSouth (190°)16.7 km/hMostly Cloudy
10:51 PM13 °C0 °C41 %1017.6 hPa16.1 kmSouth (190°)18.5 km/hMostly Cloudy
11:51 PM13.3 °C0 °C40 %1017.3 hPa16.1 kmSSW (200°)20.4 km/hOvercast
Hourly data recorded from KEWR, located 0 kilometers away from Hillside, New Jersey







STORIES FROM OUR PARTNERS